EW5507 Weather Reports


time (UTC)temp
F
wind
direction
speed
knots
gust
knots
rain 1hr
in
rain 24hr
in
rain mn
in
humidity
%
barometer
mb
20260504035202 51 31 6.1 7.8 0.00 0.00 0.00 37 1013.9
20260504034659 52 51 3.5 6.1 0.00 0.00 0.00 37 1013.9
20260504034155 52 320 4.3 8.7 0.00 0.00 0.00 37 1013.9
20260504033653 52 74 4.3 7.0 0.00 0.00 0.00 36 1013.9
20260504033150 52 9 5.2 7.8 0.00 0.00 0.00 36 1013.9
20260504032647 53 100 4.3 7.0 0.00 0.00 0.00 36 1013.9
20260504032144 53 72 2.6 4.3 0.00 0.00 0.00 36 1013.9
20260504031641 53 22 1.7 2.6 0.00 0.00 0.00 36 1013.2
20260504031137 53 57 6.1 8.7 0.00 0.00 0.00 36 1013.2
20260504030634 53 353 7.0 11.3 0.00 0.00 0.00 36 1013.2
20260504030131 53 350 5.2 6.1 0.00 0.00 0.00 36 1013.2
20260504025628 54 347 3.5 7.0 0.00 0.00 0.00 36 1013.2
20260504025125 54 25 6.1 8.7 0.00 0.00 0.00 36 1012.7
20260504024622 54 16 2.6 4.3 0.00 0.00 0.00 37 1013.2
20260504024118 54 19 7.8 11.3 0.00 0.00 0.00 37 1013.2
20260504023615 54 27 2.6 4.3 0.00 0.00 0.00 38 1012.7
20260504023111 54 359 3.5 6.1 0.00 0.00 0.00 39 1012.4
20260504022608 54 23 3.5 5.2 0.00 0.00 0.00 39 1012.7
20260504022103 54 63 1.7 2.6 0.00 0.00 0.00 39 1012.7
20260504021602 54 32 3.5 4.3 0.00 0.00 0.00 40 1012.7
20260504021058 55 19 6.1 7.8 0.00 0.00 0.00 39 1012.7
20260504020555 55 32 6.1 7.8 0.00 0.00 0.00 40 1012.7
20260504020051 55 34 5.2 8.7 0.00 0.00 0.00 39 1012.7
20260504015548 55 44 4.3 6.1 0.00 0.00 0.00 39 1012.7
20260504015044 55 3 7.0 7.8 0.00 0.00 0.00 39 1012.7
20260504014540 56 359 7.0 8.7 0.00 0.00 0.00 39 1012.7
20260504014038 56 28 7.8 11.3 0.00 0.00 0.00 38 1012.7
20260504013535 56 352 5.2 7.0 0.00 0.00 0.00 37 1012.7
20260504013032 56 70 4.3 6.1 0.00 0.00 0.00 37 1012.4
20260504012530 56 7 7.0 8.7 0.00 0.00 0.00 37 1012.4
20260504012027 56 79 4.3 6.1 0.00 0.00 0.00 37 1012.4
20260504011524 57 337 4.3 6.1 0.00 0.00 0.00 37 1012.1
20260504011020 57 78 5.2 7.0 0.00 0.00 0.00 37 1012.1
20260504010515 57 13 4.3 6.1 0.00 0.00 0.00 37 1012.1
20260504010012 57 36 2.6 4.3 0.00 0.00 0.00 38 1012.1
20260504005509 57 2 7.0 7.8 0.00 0.00 0.00 38 1012.1
20260504005006 57 6 2.6 5.2 0.00 0.00 0.00 37 1012.1
20260504004504 57 31 2.6 4.3 0.00 0.00 0.00 38 1012.1
20260504004000 57 355 2.6 4.3 0.00 0.00 0.00 38 1012.1
20260504003456 57 330 7.8 11.3 0.00 0.00 0.00 37 1012.1
20260504002954 57 14 4.3 6.1 0.00 0.00 0.00 38 1011.7
20260504002450 57 53 5.2 7.0 0.00 0.00 0.00 37 1011.4
20260504001948 57 22 4.3 7.8 0.00 0.00 0.00 38 1011.7
20260504001445 57 21 3.5 5.2 0.00 0.00 0.00 38 1011.4
20260504000942 58 38 5.2 6.1 0.00 0.00 0.00 38 1011.7
20260504000439 58 38 4.3 7.0 0.00 0.00 0.00 38 1011.4
20260503235936 58 44 3.5 5.2 0.00 0.00 0.00 38 1011.4
20260503235434 58 9 3.5 7.0 0.00 0.00 0.00 38 1011.4
20260503234931 58 25 2.6 2.6 0.00 0.00 0.00 37 1011.7
20260503234428 58 36 5.2 8.7 0.00 0.00 0.00 37 1011.4
20260503233926 59 23 1.7 2.6 0.00 0.00 0.00 37 1011.4
20260503233423 59 18 4.3 7.0 0.00 0.00 0.00 37 1010.9
20260503232919 59 14 4.3 5.2 0.00 0.00 0.00 36 1011.4
20260503232416 59 63 5.2 9.6 0.00 0.00 0.00 36 1010.9
20260503231914 59 349 6.1 9.6 0.00 0.00 0.00 36 1011.4
20260503231411 59 42 4.3 6.1 0.00 0.00 0.00 36 1010.9
20260503230907 60 53 5.2 7.8 0.00 0.00 0.00 35 1011.4
20260503230404 60 11 5.2 8.7 0.00 0.00 0.00 35 1010.9
20260503225902 60 39 4.3 6.1 0.00 0.00 0.00 34 1011.4
20260503225357 60 354 7.8 9.6 0.00 0.00 0.00 34 1010.9
20260503224854 60 42 7.8 11.3 0.00 0.00 0.00 34 1010.9
20260503224351 60 332 6.1 7.8 0.00 0.00 0.00 34 1010.9
20260503223849 60 22 3.5 5.2 0.00 0.00 0.00 34 1010.9
20260503223347 60 34 4.3 6.1 0.00 0.00 0.00 33 1010.6
20260503222842 60 80 2.6 6.1 0.00 0.00 0.00 33 1010.9
20260503222341 60 32 5.2 7.0 0.00 0.00 0.00 33 1010.9
20260503221838 60 13 4.3 8.7 0.00 0.00 0.00 33 1010.9
20260503221337 60 347 6.1 7.8 0.00 0.00 0.00 33 1010.9
20260503220832 60 32 5.2 7.0 0.00 0.00 0.00 33 1010.9
20260503220329 60 332 4.3 6.1 0.00 0.00 0.00 33 1010.6
20260503215826 60 316 5.2 6.1 0.00 0.00 0.00 33 1010.6
20260503215323 60 333 4.3 6.1 0.00 0.00 0.00 34 1010.6
20260503214821 60 40 3.5 4.3 0.00 0.00 0.00 34 1010.6
20260503214318 60 349 3.5 5.2 0.00 0.00 0.00 33 1010.6
20260503213815 60 36 4.3 6.1 0.00 0.00 0.00 34 1010.6
20260503213313 60 81 3.5 7.0 0.00 0.00 0.00 34 1010.6
20260503212810 60 141 2.6 4.3 0.00 0.00 0.00 34 1010.6
20260503212308 60 342 4.3 6.1 0.00 0.00 0.00 34 1010.9
20260503211805 60 4 4.3 6.1 0.00 0.00 0.00 34 1010.6
20260503211301 61 46 3.5 6.1 0.00 0.00 0.00 34 1010.6
20260503210801 61 349 5.2 7.8 0.00 0.00 0.00 34 1010.6
20260503210259 61 22 5.2 7.0 0.00 0.00 0.00 34 1010.6
20260503205754 61 337 4.3 5.2 0.00 0.00 0.00 34 1010.6
20260503205251 61 346 2.6 4.3 0.00 0.00 0.00 34 1010.6
20260503204747 61 9 4.3 7.0 0.00 0.00 0.00 34 1010.6
20260503204245 61 316 3.5 5.2 0.00 0.00 0.00 34 1010.9
20260503203742 61 35 3.5 6.1 0.00 0.00 0.00 34 1010.6
20260503203240 61 19 4.3 6.1 0.00 0.00 0.00 34 1010.6
20260503202736 61 4 7.8 9.6 0.00 0.00 0.00 34 1010.6
20260503202234 61 61 2.6 4.3 0.00 0.00 0.00 34 1010.3
20260503201732 62 33 2.6 4.3 0.00 0.00 0.00 35 1010.6
20260503201229 62 42 4.3 8.7 0.00 0.00 0.00 35 1010.3
20260503200726 62 333 4.3 6.1 0.00 0.00 0.00 33 1010.6
20260503200222 62 27 4.3 6.1 0.00 0.00 0.00 32 1010.3
20260503195719 62 33 5.2 7.8 0.00 0.00 0.00 32 1010.3
20260503195216 62 346 5.2 8.7 0.00 0.00 0.00 32 1010.3
20260503194713 62 89 7.8 8.7 0.00 0.00 0.00 32 1010.3
20260503194209 63 328 5.2 7.8 0.00 0.00 0.00 32 1010.3
20260503193705 63 50 6.1 11.3 0.00 0.00 0.00 32 1010.3
20260503193201 63 348 4.3 5.2 0.00 0.00 0.00 32 1010.3
20260503192657 63 2 8.7 11.3 0.00 0.00 0.00 31 1010.6
20260503192152 63 12 2.6 4.3 0.00 0.00 0.00 32 1010.3
20260503191649 63 304 6.1 8.7 0.00 0.00 0.00 32 1010.3
20260503191147 63 35 9.6 13.9 0.00 0.00 0.00 32 1009.9
20260503190643 63 56 5.2 7.0 0.00 0.00 0.00 32 1009.9
20260503190140 63 309 5.2 7.0 0.00 0.00 0.00 32 1010.3
20260503185637 64 81 3.5 4.3 0.00 0.00 0.00 32 1010.3
20260503185132 64 136 5.2 7.0 0.00 0.00 0.00 32 1010.3
20260503184627 64 290 5.2 6.1 0.00 0.00 0.00 33 1010.3
20260503184124 64 329 3.5 7.0 0.00 0.00 0.00 33 1010.3
20260503183621 64 338 4.3 5.2 0.00 0.00 0.00 32 1010.3
20260503183118 64 343 5.2 7.0 0.00 0.00 0.00 32 1010.3
20260503182616 64 352 3.5 5.2 0.00 0.00 0.00 31 1010.3
20260503182114 64 44 3.5 6.1 0.00 0.00 0.00 31 1010.3
20260503181611 64 59 6.1 8.7 0.00 0.00 0.00 31 1010.3
20260503181108 64 307 4.3 5.2 0.00 0.00 0.00 31 1010.3
20260503180605 64 98 4.3 5.2 0.00 0.00 0.00 32 1010.3
20260503180103 64 179 7.0 11.3 0.00 0.00 0.00 31 1010.3
20260503175559 64 11 4.3 7.0 0.00 0.00 0.00 33 1010.3
20260503175056 64 2 4.3 6.1 0.00 0.00 0.00 32 1010.3
20260503174553 64 1 5.2 7.8 0.00 0.00 0.00 32 1010.3
20260503174050 64 58 5.2 12.2 0.00 0.00 0.00 32 1010.3
20260503173545 63 59 6.1 8.7 0.00 0.00 0.00 32 1010.3
20260503173041 63 31 5.2 8.7 0.00 0.00 0.00 32 1010.3
20260503172539 63 34 3.5 6.1 0.00 0.00 0.00 33 1010.3
20260503172036 63 359 1.7 2.6 0.00 0.00 0.00 34 1010.3
20260503171532 63 114 4.3 7.8 0.00 0.00 0.00 34 1010.3
20260503171030 63 348 3.5 5.2 0.00 0.00 0.00 35 1010.3
20260503170526 62 3 2.6 4.3 0.00 0.00 0.00 35 1010.3
20260503150918 58 76 4.3 7.0 0.00 0.00 0.00 41 1009.9
20260503150415 58 77 1.7 2.6 0.00 0.00 0.00 42 1009.9
20260503131308 51 74 0.9 1.7 0.00 0.00 0.00 48 1009.5
20260503130806 51 92 0.0 1.7 0.00 0.00 0.00 47 1009.5
20260503130303 51 107 0.0 0.0 0.00 0.00 0.00 47 1009.5
20260503110657 51 113 0.9 0.9 0.00 0.00 0.00 45 1009.5
20260503110154 51 117 0.9 0.9 0.00 0.00 0.00 45 1009.2
20260503100120 53 115 0.0 0.9 0.00 0.00 0.00 43 1009.9
20260503081510 54 9 2.6 2.6 0.00 0.00 0.00 40 1010.3
20260503081007 54 198 0.9 0.9 0.00 0.00 0.00 41 1010.3
20260503080503 55 112 0.0 0.9 0.00 0.00 0.00 41 1010.6
20260503072939 55 76 1.7 2.6 0.00 0.00 0.00 41 1010.6
20260503072437 55 87 1.7 1.7 0.00 0.00 0.00 41 1010.6
20260503071934 55 138 0.0 0.0 0.00 0.00 0.00 40 1010.3
20260503071431 56 123 0.0 0.0 0.00 0.00 0.00 40 1010.3
20260503070926 56 117 0.0 0.9 0.00 0.00 0.00 40 1010.3
20260503070424 56 87 1.7 5.2 0.00 0.00 0.00 40 1010.6
20260503054837 60 48 1.7 1.7 0.00 0.00 0.00 36 1009.9
20260503054333 60 94 2.6 4.3 0.00 0.00 0.00 35 1009.9
20260503053831 60 138 0.0 0.0 0.00 0.00 0.00 35 1009.9
20260503053330 60 144 0.0 0.0 0.00 0.00 0.00 35 1009.9
20260503052826 60 126 0.0 0.0 0.00 0.00 0.00 36 1009.9
20260503052323 60 136 0.0 0.0 0.00 0.00 0.00 36 1009.9
20260503051819 59 139 0.0 0.0 0.00 0.00 0.00 36 1009.9
20260503051315 59 128 0.0 0.9 0.00 0.00 0.00 35 1010.3
20260503050812 58 143 0.0 0.0 0.00 0.00 0.00 36 1009.9
20260503050308 57 116 0.0 0.0 0.00 0.00 0.00 35 1009.9
20260503045806 57 136 0.0 0.9 0.00 0.00 0.00 35 1010.3
20260503045305 57 160 0.0 0.0 0.00 0.00 0.00 39 1009.9
20260503044800 57 149 0.0 0.0 0.00 0.00 0.00 40 1009.9
20260503044257 58 152 0.0 0.0 0.00 0.00 0.00 41 1009.5
20260503043754 59 165 0.0 0.0 0.00 0.00 0.00 41 1009.5
20260503043251 59 163 0.0 0.9 0.00 0.00 0.00 39 1009.5
20260503042747 60 162 0.0 0.9 0.00 0.00 0.00 38 1009.5
20260503042244 60 157 0.9 0.9 0.00 0.00 0.00 39 1009.9
20260503041739 60 160 0.0 0.0 0.00 0.00 0.00 37 1009.9
20260503041238 60 145 0.0 0.0 0.00 0.00 0.00 36 1009.9
20260503040735 60 92 0.0 0.9 0.00 0.00 0.00 36 1009.5
20260503040233 61 140 0.0 0.0 0.00 0.00 0.00 35 1009.5
20260503035729 61 32 1.7 1.7 0.00 0.00 0.00 35 1009.5